Weather History for KPMV - August, 2013

Change the Weather History Date:

Sunday, August 25, 2013

  Actual Average (KOFF) Record (KOFF)
Temperature  
Mean Temperature 83 °F -  
Max Temperature 94 °F 82 °F 102 °F (2003)
Min Temperature 72 °F 64 °F 54 °F (2010)
Cooling Degree Days 18    
Growing Degree Days 33 (Base 50)    
Moisture  
Dew Point 71 °F    
Average Humidity 69    
Maximum Humidity 91    
Minimum Humidity 44    
Precipitation  
Precipitation 0.00 in - - ()
Sea Level Pressure  
Sea Level Pressure 30.10 in    
Wind  
Wind Speed 12 mph (SSE)    
Max Wind Speed 17 mph    
Max Gust Speed 23 mph    
Visibility 10 miles    
Events      
Averages and records for this station are not official NWS values.
T = Trace of Precipitation, MM = Missing Value Source: NWS Daily Summary

Daily Weather History Graph

Daily Weather History Graph

Search for Another Location

Airport or City:

Trip Planner

Search our weather history database for the weather conditions in past years. The results will help you decide how hot, cold, wet, or windy it might be!

Date:

Astronomy

Aug. 25, 2013 Rise Set
Actual Time 6:43 AM CDT 8:06 PM CDT
Civil Twilight 6:15 AM CDT 8:35 PM CDT
Nautical Twilight 5:40 AM CDT 9:09 PM CDT
Astronomical Twilight 5:04 AM CDT 9:45 PM CDT
Moon 10:35 PM CDT 11:49 AM CDT
Length of Visible Light 14h 20m
Length of Day
13h 23m
Waning Gibbous, 75% of the Moon is Illuminated
Aug 25
Waning Gibbous
Aug 28
Last Quarter
Sep 5
New
Sep 12
First Quarter
Sep 19
Full

Hourly Weather History & Observations

Time (CDT) Temp. Heat Index Dew Point Humidity Pressure Visibility Wind Dir Wind Speed Gust Speed Precip Events Conditions
12:15 AM 78.4 °F - 70.2 °F 76% 30.10 in 10.0 mi South 11.5 mph 16.1 mph N/A   Clear
12:35 AM 78.4 °F - 70.2 °F 76% 30.10 in 10.0 mi SSE 11.5 mph - N/A   Clear
12:55 AM 77.5 °F - 70.3 °F 78% 30.10 in 10.0 mi SSE 11.5 mph - N/A   Clear
1:15 AM 77.0 °F - 70.7 °F 81% 30.10 in 10.0 mi SSE 11.5 mph - N/A   Clear
1:35 AM 76.6 °F - 70.5 °F 81% 30.09 in 10.0 mi SSE 10.4 mph 16.1 mph N/A   Clear
1:55 AM 76.3 °F - 70.3 °F 82% 30.10 in 10.0 mi SSE 11.5 mph 16.1 mph N/A   Clear
2:15 AM 76.1 °F - 70.2 °F 82% 30.10 in 10.0 mi SSE 9.2 mph - N/A   Clear
2:35 AM 75.4 °F - 70.0 °F 83% 30.10 in 10.0 mi SSE 10.4 mph - N/A   Clear
2:55 AM 75.0 °F - 70.0 °F 84% 30.10 in 10.0 mi South 10.4 mph - N/A   Clear
3:15 AM 74.5 °F - 70.0 °F 86% 30.11 in 10.0 mi South 11.5 mph - N/A   Clear
3:35 AM 74.3 °F - 69.8 °F 86% 30.11 in 10.0 mi South 10.4 mph - N/A   Clear
3:55 AM 73.9 °F - 69.8 °F 87% 30.11 in 10.0 mi South 11.5 mph - N/A   Clear
4:15 AM 73.8 °F - 69.8 °F 87% 30.11 in 10.0 mi South 11.5 mph - N/A   Clear
4:35 AM 73.8 °F - 69.8 °F 87% 30.12 in 10.0 mi South 11.5 mph - N/A   Clear
4:55 AM 73.4 °F - 69.8 °F 88% 30.12 in 10.0 mi South 10.4 mph - N/A   Clear
5:15 AM 73.4 °F - 69.8 °F 88% 30.12 in 10.0 mi South 9.2 mph - N/A   Clear
5:35 AM 73.4 °F - 69.8 °F 88% 30.12 in 10.0 mi South 10.4 mph - N/A   Clear
5:55 AM 73.0 °F - 69.6 °F 89% 30.12 in 10.0 mi SSE 10.4 mph - N/A   Clear
6:15 AM 72.7 °F - 69.4 °F 90% 30.13 in 10.0 mi South 10.4 mph - N/A   Clear
6:35 AM 72.5 °F - 69.4 °F 90% 30.13 in 10.0 mi SSE 10.4 mph - N/A   Clear
6:55 AM 72.5 °F - 69.4 °F 90% 30.14 in 7.0 mi SSE 10.4 mph - N/A   Clear
7:15 AM 72.5 °F - 69.6 °F 91% 30.14 in 7.0 mi SSE 9.2 mph - N/A   Clear
7:35 AM 72.9 °F - 69.8 °F 90% 30.15 in 7.0 mi SSE 8.1 mph - N/A   Clear
7:55 AM 73.8 °F - 69.8 °F 87% 30.14 in 7.0 mi SSE 10.4 mph - N/A   Clear
8:15 AM 74.7 °F - 69.8 °F 85% 30.14 in 10.0 mi SSE 8.1 mph 16.1 mph N/A   Clear
8:35 AM 75.6 °F - 70.0 °F 83% 30.14 in 10.0 mi SSE 11.5 mph 19.6 mph N/A   Clear
8:55 AM 76.8 °F - 70.3 °F 80% 30.15 in 10.0 mi SSE 10.4 mph - N/A   Clear
9:15 AM 78.8 °F - 70.7 °F 76% 30.14 in 10.0 mi South 10.4 mph 17.3 mph N/A   Clear
9:35 AM 80.6 °F 84.1 °F 70.3 °F 71% 30.14 in 10.0 mi South 17.3 mph 20.7 mph N/A   Clear
9:55 AM 82.0 °F 85.7 °F 69.8 °F 66% 30.14 in 10.0 mi South 15.0 mph 21.9 mph N/A   Clear
10:15 AM 83.3 °F 87.4 °F 70.0 °F 64% 30.13 in 10.0 mi South 16.1 mph 21.9 mph N/A   Clear
10:35 AM 84.4 °F 89.0 °F 70.7 °F 63% 30.13 in 10.0 mi South 16.1 mph 20.7 mph N/A   Clear
10:55 AM 85.1 °F 89.8 °F 70.5 °F 61% 30.13 in 10.0 mi South 15.0 mph 23.0 mph N/A   Clear
11:15 AM 86.2 °F 91.4 °F 71.1 °F 60% 30.13 in 10.0 mi South 16.1 mph 20.7 mph N/A   Clear
11:35 AM 87.3 °F 93.2 °F 71.4 °F 59% 30.13 in 10.0 mi South 15.0 mph - N/A   Clear
11:55 AM 88.0 °F 94.2 °F 71.6 °F 58% 30.13 in 10.0 mi South 16.1 mph 20.7 mph N/A   Clear
12:15 PM 89.4 °F 95.8 °F 71.4 °F 55% 30.12 in 10.0 mi South 15.0 mph 19.6 mph N/A   Clear
12:35 PM 90.5 °F 97.0 °F 71.2 °F 53% 30.11 in 10.0 mi South 12.7 mph 18.4 mph N/A   Clear
12:55 PM 90.7 °F 97.4 °F 71.2 °F 53% 30.11 in 10.0 mi South 15.0 mph 20.7 mph N/A   Clear
1:15 PM 90.9 °F 97.3 °F 70.9 °F 52% 30.10 in 10.0 mi South 13.8 mph 19.6 mph N/A   Clear
1:35 PM 92.1 °F 98.3 °F 70.5 °F 49% 30.10 in 10.0 mi SSE 12.7 mph 19.6 mph N/A   Clear
1:55 PM 93.2 °F 99.4 °F 70.2 °F 47% 30.10 in 10.0 mi South 16.1 mph 21.9 mph N/A   Clear
2:15 PM 93.9 °F 100.3 °F 70.5 °F 46% 30.09 in 10.0 mi South 16.1 mph 20.7 mph N/A   Clear
2:35 PM 93.7 °F 99.9 °F 70.0 °F 46% 30.08 in 10.0 mi South 13.8 mph 21.9 mph N/A   Clear
2:55 PM 94.1 °F 99.5 °F 69.4 °F 44% 30.08 in 10.0 mi South 17.3 mph 23.0 mph N/A   Clear
3:15 PM 94.5 °F 101.4 °F 70.5 °F 46% 30.08 in 10.0 mi South 15.0 mph 21.9 mph N/A   Clear
3:35 PM 94.1 °F 100.6 °F 70.7 °F 46% 30.07 in 10.0 mi South 13.8 mph - N/A   Clear
3:55 PM 94.3 °F 101.0 °F 70.7 °F 46% 30.07 in 10.0 mi South 17.3 mph 20.7 mph N/A   Clear
4:15 PM 94.1 °F 101.2 °F 71.2 °F 47% 30.07 in 10.0 mi SSE 15.0 mph 23.0 mph N/A   Clear
4:35 PM 94.3 °F 102.2 °F 71.6 °F 48% 30.07 in 10.0 mi South 12.7 mph 18.4 mph N/A   Clear
4:55 PM 93.6 °F 100.7 °F 71.2 °F 48% 30.07 in 10.0 mi South 12.7 mph 21.9 mph N/A   Clear
5:15 PM 93.2 °F 99.9 °F 71.1 °F 48% 30.07 in 10.0 mi South 15.0 mph - N/A   Clear
5:35 PM 92.7 °F 101.1 °F 72.5 °F 52% 30.07 in 10.0 mi South 12.7 mph 17.3 mph N/A   Clear
5:55 PM 92.1 °F 100.5 °F 72.7 °F 53% 30.07 in 10.0 mi South 13.8 mph 19.6 mph N/A   Clear
6:15 PM 91.4 °F 98.9 °F 72.0 °F 53% 30.07 in 10.0 mi SSE 15.0 mph - N/A   Clear
6:35 PM 90.7 °F 98.5 °F 72.3 °F 55% 30.07 in 10.0 mi SSE 9.2 mph - N/A   Clear
6:55 PM 89.8 °F 96.5 °F 71.8 °F 55% 30.07 in 10.0 mi SSE 10.4 mph 18.4 mph N/A   Clear
7:15 PM 88.7 °F 95.2 °F 71.6 °F 57% 30.07 in 10.0 mi SSE 11.5 mph - N/A   Clear
7:35 PM 87.3 °F 93.6 °F 71.8 °F 60% 30.06 in 10.0 mi SSE 9.2 mph - N/A   Clear
7:55 PM 86.0 °F 92.6 °F 72.5 °F 64% 30.06 in 10.0 mi SSE 8.1 mph - N/A   Clear
8:15 PM 85.1 °F 91.5 °F 72.5 °F 66% 30.07 in 10.0 mi SSE 6.9 mph - N/A   Clear
8:35 PM 84.2 °F 90.3 °F 72.7 °F 68% 30.08 in 10.0 mi SSE 8.1 mph - N/A   Clear
8:55 PM 83.3 °F 89.3 °F 72.9 °F 71% 30.08 in 10.0 mi SSE 9.2 mph - N/A   Clear
9:15 PM 83.3 °F 89.3 °F 73.2 °F 71% 30.09 in 10.0 mi SSE 10.4 mph - N/A   Clear
9:35 PM 82.8 °F 88.4 °F 73.0 °F 72% 30.10 in 10.0 mi SSE 9.2 mph - N/A   Clear
9:55 PM 82.4 °F 87.9 °F 72.9 °F 73% 30.10 in 10.0 mi SSE 8.1 mph - N/A   Clear
10:15 PM 81.7 °F 86.7 °F 72.5 °F 74% 30.11 in 10.0 mi SSE 9.2 mph - N/A   Clear
10:35 PM 81.3 °F 85.8 °F 72.0 °F 73% 30.11 in 10.0 mi SSE 9.2 mph - N/A   Clear
10:55 PM 80.6 °F 84.6 °F 71.6 °F 74% 30.11 in 10.0 mi South 9.2 mph - N/A   Clear
11:15 PM 79.9 °F - 71.2 °F 75% 30.11 in 10.0 mi SSE 9.2 mph - N/A   Clear
11:35 PM 79.9 °F - 70.9 °F 74% 30.11 in 10.0 mi SSE 9.2 mph - N/A   Clear
11:55 PM 79.7 °F - 70.3 °F 73% 30.11 in 10.0 mi South 9.2 mph - N/A   Clear